Hourly Weather Armawir

Today, 14 August, Friday

Time Temperature Precipitation Wind Pressure Humidity
00:00 +24°C° 0.1 mm 3 mps 685 mmHg 58%
01:00 +22°C° 0 mm 3 mps 685 mmHg 59%
02:00 +22°C° 0 mm 3 mps 685 mmHg 60%
03:00 +22°C° 0 mm 3 mps 685 mmHg 61%
04:00 +22°C° 0 mm 3 mps 685 mmHg 60%
05:00 +22°C° 0 mm 3 mps 685 mmHg 60%
06:00 +22°C° 0 mm 3 mps 685 mmHg 60%
07:00 +24°C° 0.1 mm 2 mps 685 mmHg 56%
08:00 +26°C° 0.1 mm 2 mps 685 mmHg 51%
09:00 +27°C° 0.1 mm 2 mps 685 mmHg 46%
10:00 +28°C° 0.2 mm 2 mps 685 mmHg 43%
11:00 +30°C° 0.2 mm 2 mps 684 mmHg 39%
12:00 +31°C° 0.2 mm 1 mps 684 mmHg 36%
13:00 +32°C° 0.3 mm 2 mps 684 mmHg 35%
14:00 +32°C° 0.3 mm 2 mps 683 mmHg 34%
15:00 +32°C° 0.3 mm 2 mps 683 mmHg 33%
16:00 +31°C° 0.2 mm 3 mps 683 mmHg 35%
17:00 +31°C° 0.2 mm 3 mps 683 mmHg 37%
18:00 +30°C° 0.2 mm 4 mps 683 mmHg 39%
19:00 +28°C° 0.6 mm 3 mps 684 mmHg 46%
20:00 +26°C° 0.6 mm 3 mps 684 mmHg 52%
21:00 +24°C° 0.6 mm 2 mps 684 mmHg 59%
22:00 +24°C° 0.1 mm 2 mps 684 mmHg 59%
23:00 +22°C° 0.1 mm 3 mps 684 mmHg 59%

Tomorrow, 15 August, Saturday

Time Temperature Precipitation Wind Pressure Humidity
00:00 +22°C° 0.1 mm 3 mps 684 mmHg 59%
01:00 +21°C° 0 mm 3 mps 684 mmHg 60%
02:00 +21°C° 0 mm 3 mps 684 mmHg 60%
03:00 +21°C° 0 mm 3 mps 684 mmHg 61%
04:00 +20°C° 0 mm 3 mps 684 mmHg 61%
05:00 +20°C° 0 mm 3 mps 684 mmHg 61%
06:00 +20°C° 0 mm 3 mps 684 mmHg 61%
07:00 +22°C° 0 mm 3 mps 684 mmHg 55%
08:00 +25°C° 0 mm 4 mps 684 mmHg 50%
09:00 +26°C° 0 mm 4 mps 685 mmHg 45%
10:00 +28°C° 0 mm 3 mps 685 mmHg 41%
11:00 +29°C° 0 mm 2 mps 685 mmHg 38%
12:00 +30°C° 0 mm 2 mps 685 mmHg 34%
13:00 +31°C° 0 mm 2 mps 684 mmHg 33%
14:00 +31°C° 0 mm 2 mps 684 mmHg 32%
15:00 +32°C° 0 mm 2 mps 684 mmHg 30%
16:00 +32°C° 0 mm 4 mps 684 mmHg 32%
17:00 +30°C° 0 mm 5 mps 684 mmHg 35%
18:00 +29°C° 0 mm 6 mps 684 mmHg 37%
19:00 +28°C° 0 mm 5 mps 684 mmHg 40%
20:00 +26°C° 0 mm 4 mps 685 mmHg 43%
21:00 +25°C° 0 mm 3 mps 685 mmHg 47%
22:00 +24°C° 0 mm 3 mps 685 mmHg 47%
23:00 +24°C° 0 mm 2 mps 685 mmHg 47%

Day after tomorrow, 16 August, Sunday

Time Temperature Precipitation Wind Pressure Humidity
00:00 +23°C° 0 mm 2 mps 685 mmHg 47%
01:00 +23°C° 0 mm 2 mps 685 mmHg 48%
02:00 +21°C° 0 mm 2 mps 685 mmHg 49%
03:00 +20°C° 0 mm 2 mps 685 mmHg 49%
04:00 +20°C° 0 mm 2 mps 685 mmHg 51%
05:00 +20°C° 0 mm 2 mps 685 mmHg 52%
06:00 +19°C° 0 mm 2 mps 685 mmHg 53%
07:00 +21°C° 0 mm 2 mps 685 mmHg 49%
08:00 +24°C° 0 mm 2 mps 685 mmHg 44%
09:00 +26°C° 0 mm 2 mps 685 mmHg 40%
10:00 +27°C° 0 mm 2 mps 685 mmHg 38%
11:00 +28°C° 0 mm 3 mps 685 mmHg 36%
12:00 +30°C° 0 mm 3 mps 685 mmHg 35%
13:00 +31°C° 0 mm 3 mps 685 mmHg 33%
14:00 +33°C° 0 mm 3 mps 685 mmHg 31%
15:00 +34°C° 0 mm 3 mps 684 mmHg 30%
16:00 +33°C° 0.1 mm 3 mps 684 mmHg 32%
17:00 +31°C° 0.1 mm 3 mps 684 mmHg 35%
18:00 +30°C° 0.1 mm 4 mps 684 mmHg 38%
19:00 +28°C° 0.4 mm 3 mps 684 mmHg 45%
20:00 +26°C° 0.4 mm 3 mps 684 mmHg 53%
21:00 +24°C° 0.4 mm 3 mps 684 mmHg 60%
22:00 +23°C° 1 mm 2 mps 684 mmHg 65%
23:00 +21°C° 1 mm 2 mps 684 mmHg 69%

17 August, Monday

Time Temperature Precipitation Wind Pressure Humidity
00:00 +22°C° 1 mm 1 mps 684 mmHg 74%
01:00 +21°C° 0.5 mm 1 mps 684 mmHg 74%
02:00 +21°C° 0.5 mm 1 mps 684 mmHg 75%
03:00 +21°C° 0.5 mm 1 mps 684 mmHg 75%
04:00 +21°C° 0.1 mm 1 mps 685 mmHg 74%
05:00 +21°C° 0.1 mm 1 mps 685 mmHg 73%
06:00 +21°C° 0.1 mm 1 mps 685 mmHg 72%
07:00 +22°C° 0 mm 1 mps 685 mmHg 65%
08:00 +24°C° 0 mm 1 mps 686 mmHg 59%
09:00 +25°C° 0 mm 1 mps 686 mmHg 52%
10:00 +27°C° 0 mm 1 mps 686 mmHg 49%
11:00 +28°C° 0 mm 1 mps 686 mmHg 45%
12:00 +29°C° 0 mm 1 mps 686 mmHg 42%
13:00 +30°C° 0 mm 2 mps 686 mmHg 39%
14:00 +31°C° 0 mm 2 mps 686 mmHg 37%
15:00 +33°C° 0 mm 3 mps 686 mmHg 35%
16:00 +32°C° 0 mm 4 mps 686 mmHg 38%
17:00 +30°C° 0 mm 4 mps 686 mmHg 40%
18:00 +29°C° 0 mm 5 mps 686 mmHg 42%
19:00 +27°C° 0.1 mm 4 mps 686 mmHg 47%
20:00 +26°C° 0.1 mm 3 mps 686 mmHg 51%
21:00 +24°C° 0.1 mm 3 mps 686 mmHg 56%
22:00 +23°C° 0 mm 2 mps 686 mmHg 58%
23:00 +23°C° 0 mm 2 mps 686 mmHg 59%

18 August, Tuesday

Time Temperature Precipitation Wind Pressure Humidity
00:00 +22°C° 0 mm 1 mps 686 mmHg 61%
01:00 +22°C° 0.1 mm 1 mps 686 mmHg 63%
02:00 +21°C° 0.1 mm 1 mps 686 mmHg 65%
03:00 +21°C° 0.1 mm 1 mps 685 mmHg 67%
04:00 +21°C° 0 mm 1 mps 685 mmHg 67%
05:00 +21°C° 0 mm 1 mps 685 mmHg 67%
06:00 +21°C° 0 mm 1 mps 685 mmHg 66%
07:00 +22°C° 0 mm 1 mps 685 mmHg 61%
08:00 +24°C° 0 mm 1 mps 685 mmHg 56%
09:00 +25°C° 0 mm 1 mps 685 mmHg 50%
10:00 +26°C° 0 mm 2 mps 685 mmHg 47%
11:00 +28°C° 0 mm 2 mps 685 mmHg 44%
12:00 +29°C° 0 mm 2 mps 684 mmHg 41%
13:00 +30°C° 0 mm 2 mps 684 mmHg 38%
14:00 +31°C° 0 mm 2 mps 684 mmHg 36%
15:00 +32°C° 0 mm 2 mps 683 mmHg 34%
16:00 +31°C° 0 mm 2 mps 683 mmHg 35%
17:00 +31°C° 0 mm 2 mps 683 mmHg 37%
18:00 +30°C° 0 mm 2 mps 683 mmHg 38%
19:00 +29°C° 0 mm 2 mps 683 mmHg 44%
20:00 +27°C° 0 mm 3 mps 684 mmHg 49%
21:00 +25°C° 0 mm 3 mps 684 mmHg 54%
22:00 +24°C° 0 mm 2 mps 684 mmHg 56%
23:00 +23°C° 0 mm 2 mps 684 mmHg 58%

19 August, Wednesday

Time Temperature Precipitation Wind Pressure Humidity
00:00 +23°C° 0 mm 1 mps 684 mmHg 60%
01:00 +21°C° 0.1 mm 2 mps 684 mmHg 61%
02:00 +21°C° 0.1 mm 2 mps 683 mmHg 63%
03:00 +20°C° 0.1 mm 2 mps 683 mmHg 64%
04:00 +20°C° 0.1 mm 2 mps 683 mmHg 65%
05:00 +20°C° 0.1 mm 2 mps 683 mmHg 65%
06:00 +20°C° 0.1 mm 2 mps 683 mmHg 65%
07:00 +23°C° 0 mm 2 mps 684 mmHg 59%
08:00 +24°C° 0 mm 1 mps 684 mmHg 53%
09:00 +26°C° 0 mm 1 mps 684 mmHg 46%
10:00 +28°C° 0 mm 1 mps 684 mmHg 43%
11:00 +29°C° 0 mm 1 mps 684 mmHg 39%
12:00 +31°C° 0 mm 1 mps 684 mmHg 36%
13:00 +31°C° 0 mm 2 mps 684 mmHg 34%
14:00 +32°C° 0 mm 2 mps 683 mmHg 32%
15:00 +34°C° 0 mm 3 mps 683 mmHg 30%
16:00 +33°C° 0 mm 3 mps 683 mmHg 32%
17:00 +33°C° 0 mm 3 mps 683 mmHg 34%
18:00 +31°C° 0 mm 3 mps 683 mmHg 35%
19:00 +29°C° 0 mm 3 mps 683 mmHg 41%
20:00 +27°C° 0 mm 3 mps 684 mmHg 46%
21:00 +25°C° 0 mm 2 mps 684 mmHg 51%
22:00 +25°C° 0 mm 2 mps 684 mmHg 53%
23:00 +24°C° 0 mm 2 mps 684 mmHg 55%
Show more